Temperature
11 11 11 11 11 11 10 11 11 11 11 11 11 11 11 10 10 10 10 10 10 10 10 10 10 10 10 10 10 9 9 9 9 9 9 9 9 9 9 8 8 8 8
11 11 11 11 11 11 11 11 10 10 10 11 11 11 10 10 10 10 10 10 10 10 10 10 9 9 9 9 9 9 9 9 9 9 9 8 8 8 8 8 8 8 8
11 11 11 11 11 11 11 11 10 10 10 10 10 10 10 10 10 10 10 10 9 9 9 9 9 9 9 9 9 9 8 9 8 8 8 8 8 8 8 8 8 7 7
11 11 11 11 11 11 11 10 10 10 10 10 10 10 10 10 10 10 9 9 9 9 9 9 9 8 8 8 8 8 8 8 8 8 8 7 7 7 7 7 7 7 7
11 11 11 11 11 11 10 10 10 10 10 10 10 10 10 9 9 9 9 9 9 8 8 8 8 8 8 8 8 8 8 8 8 7 7 7 7 6 6 6 7 7 7
11 11 11 11 10 10 10 10 10 10 10 10 9 9 9 9 9 9 9 8 8 8 8 8 8 8 8 7 8 7 7 7 7 7 7 6 6 6 6 5 6 6 6
10 10 10 10 10 10 10 10 10 10 10 9 9 9 9 9 9 8 8 8 8 8 8 7 7 7 7 7 7 7 7 7 7 6 6 6 6 6 5 5 5 5 5
10 10 10 10 10 10 10 10 10 10 10 9 9 9 9 8 8 8 8 8 7 7 7 7 7 7 7 7 6 6 6 6 6 6 6 6 5 5 5 4 4 4 4
10 10 10 10 10 10 10 10 10 10 9 9 9 9 8 8 8 8 7 7 7 7 7 7 6 6 6 6 6 6 6 6 6 5 5 5 5 5 4 4 4 3 2
9 10 10 10 10 10 10 9 9 9 9 9 9 8 8 8 7 7 7 7 7 6 6 6 6 6 6 6 5 5 5 5 5 5 5 5 4 4 4 4 3 3 2
9 9 9 9 9 9 9 9 9 9 8 8 8 8 8 7 7 7 7 6 6 6 6 6 6 5 5 5 5 5 5 5 5 4 4 4 4 4 4 3 3 3 2
9 9 9 9 9 9 9 9 9 8 8 8 8 7 7 7 7 7 6 6 6 6 6 5 5 5 5 5 5 4 4 4 4 4 4 4 3 3 3 3 3 2 2
9 9 9 9 9 9 9 8 8 8 8 8 7 7 7 7 7 6 6 6 6 6 5 5 5 5 5 4 4 4 4 4 4 4 3 3 3 3 3 3 2 2 2
9 8 8 8 8 9 8 8 8 8 7 7 7 7 7 7 6 6 6 6 5 5 5 5 5 4 4 4 4 4 4 3 3 3 3 3 3 2 2 2 2 1 1
8 8 8 8 8 8 8 8 8 7 7 7 7 7 6 6 6 6 6 5 5 5 5 4 4 4 4 4 4 3 3 3 3 3 2 2 2 2 2 1 1 1 1
8 8 8 8 8 8 8 7 7 7 7 7 7 6 6 6 6 5 5 5 5 4 4 4 4 4 4 3 3 3 3 2 2 2 2 2 2 2 1 1 1 0 -0
7 7 8 8 8 8 7 7 7 7 6 6 6 6 6 6 5 5 5 4 4 4 4 4 4 3 3 3 3 2 2 2 2 2 1 1 1 1 1 1 0 0 -0
7 7 7 7 7 7 7 7 7 6 6 6 6 5 5 5 5 5 4 4 4 4 4 3 3 3 3 3 2 2 2 2 1 1 1 1 1 0 0 -0 -0 -1 -1
7 7 7 7 7 7 7 6 6 6 6 5 5 5 5 5 4 4 4 4 3 3 3 3 3 3 3 2 2 1 1 1 1 1 1 0 0 -0 -1 -1 -1 -1 -1
6 6 6 6 6 6 6 6 6 6 5 5 5 5 4 4 4 4 3 3 3 3 3 3 3 2 2 2 1 1 1 1 1 1 0 -0 -0 -1 -1 -1 -2 -2 -2
6 6 6 6 6 6 5 5 5 5 5 4 4 4 4 4 3 3 3 3 3 2 2 2 2 2 2 1 1 1 1 1 0 0 -0 -0 -1 -1 -1 -2 -2 -2 -3
5 5 5 5 5 5 5 5 5 5 4 4 4 3 3 3 3 3 3 2 2 2 2 2 2 2 1 1 1 1 0 -0 -0 -0 -1 -1 -1 -2 -2 -2 -2 -3 -3
5 5 4 4 4 4 4 4 4 4 3 3 3 3 3 3 2 2 2 2 2 2 1 1 1 1 1 1 0 0 -0 -0 -1 -1 -1 -2 -2 -2 -2 -2 -3 -3 -4
4 4 4 4 4 4 3 3 3 3 3 3 3 2 2 2 2 2 2 1 1 1 1 1 1 1 1 0 0 -0 -0 -1 -1 -1 -2 -2 -2 -3 -3 -3 -3 -4 -4
3 3 3 3 3 3 3 3 3 2 2 2 2 2 2 2 1 1 1 1 1 1 0 0 0 -0 -0 -0 -1 -1 -1 -1 -2 -2 -2 -2 -3 -3 -3 -4 -4 -4 -5
2 2 2 2 2 2 2 2 2 2 2 1 1 1 1 1 1 1 1 0 0 0 -0 -0 -0 -1 -1 -1 -1 -1 -2 -2 -3 -3 -3 -3 -3 -4 -4 -4 -5 -5 -5
Wind_Speed
4 3 4 4 3 3 4 4 5 6 6 4 4 4 3 2 2 2 3 4 5 6 6 4 3 3 3 3 3 3 4 3 2 2 2 3 3 2 2 3 3 4 5
2 2 3 3 4 5 5 5 5 5 5 4 3 3 3 3 2 3 3 3 4 4 5 5 3 3 3 4 3 3 2 2 2 2 2 2 3 2 2 2 2 2 4
5 4 4 4 5 6 6 6 6 6 5 5 4 4 4 3 2 3 2 2 4 4 4 5 4 3 3 3 3 3 3 2 1 2 3 2 2 2 2 1 2 2 2
4 4 4 4 4 5 5 5 6 6 6 6 6 6 5 4 4 3 3 3 3 4 4 4 5 4 3 3 2 2 2 3 2 1 2 2 3 1 2 2 2 2 1
5 5 5 5 4 4 4 4 5 5 6 6 7 6 5 3 3 4 4 3 3 3 3 4 4 4 3 3 3 3 3 2 2 2 1 2 2 2 2 2 3 3 2
4 4 3 3 3 2 3 4 5 5 6 6 6 7 7 6 6 5 4 3 2 2 2 3 4 4 3 3 3 3 3 2 2 2 2 2 2 2 2 2 2 3 3
4 4 3 3 4 4 4 4 5 5 5 6 6 6 6 7 6 5 5 4 3 2 2 2 3 3 3 4 3 3 2 3 3 2 2 2 2 2 2 2 2 2 2
4 4 5 5 5 5 5 5 6 5 6 6 6 5 5 5 4 5 4 4 3 2 2 3 2 3 3 3 3 2 2 2 2 2 2 1 2 2 2 3 2 1 2
3 4 4 4 5 6 7 7 7 6 6 6 6 5 5 5 5 4 4 3 3 2 3 3 3 2 3 3 3 2 2 2 2 2 2 1 1 2 2 2 3 3 2
3 3 3 3 4 5 5 6 6 6 5 6 6 5 5 5 5 5 5 4 4 3 4 3 3 3 3 3 3 2 2 2 2 2 2 2 1 2 2 2 2 3 4
3 3 2 2 2 3 4 5 5 5 5 6 5 5 5 5 5 5 5 4 4 4 4 4 4 3 3 3 3 3 3 3 2 2 2 3 2 2 2 2 2 3 3
3 2 2 2 2 3 4 5 5 5 6 6 6 5 5 5 5 5 4 4 4 4 4 4 4 3 3 3 4 4 3 4 3 3 3 3 2 3 2 2 3 3 4
3 2 1 2 3 3 4 4 5 5 5 5 6 5 5 5 5 4 4 4 4 4 3 4 4 4 3 4 4 4 4 4 4 4 4 4 3 4 3 3 4 3 3
3 2 2 2 3 3 4 4 4 4 5 5 6 6 5 5 5 4 4 4 4 4 4 4 4 4 4 4 4 4 4 4 4 4 5 5 5 6 5 4 5 4 4
4 4 3 3 3 3 3 4 4 4 5 6 6 6 5 5 4 4 4 4 4 4 4 4 3 3 3 4 4 4 4 4 4 4 5 5 6 7 6 5 4 4 4
5 4 4 3 3 4 4 4 4 5 5 6 6 5 5 5 5 5 4 4 4 3 3 4 4 4 4 5 6 5 4 5 5 5 5 5 6 8 9 10 9 7 6
5 4 4 4 4 4 5 5 5 5 5 5 5 5 5 5 5 4 4 4 4 3 3 4 4 4 5 6 7 7 4 5 5 5 5 5 5 7 5 8 10 10 12
5 5 4 4 3 3 3 3 4 5 5 5 5 5 5 5 4 4 4 4 3 4 4 4 4 4 5 7 8 8 5 5 6 6 6 6 6 6 6 6 6 7 8
5 5 4 3 3 2 2 3 3 4 5 5 6 6 6 6 5 5 5 4 4 4 4 4 5 5 6 8 8 7 4 4 6 6 6 6 7 10 10 6 7 7 7
4 4 3 2 2 2 2 3 4 4 5 6 6 5 6 6 6 6 5 4 4 5 4 4 5 6 6 8 8 7 4 5 5 5 5 9 9 11 11 7 6 8 8
4 4 3 2 3 2 2 3 4 5 5 4 4 4 5 6 6 5 4 4 4 4 4 5 5 5 6 8 9 8 4 5 5 5 4 5 11 12 12 10 7 10 9
5 3 3 4 3 1 2 3 5 4 3 3 4 4 5 4 4 5 4 4 4 4 4 4 4 4 5 6 8 9 8 7 5 5 5 6 11 11 12 9 10 13 11
5 4 3 4 3 2 2 4 4 3 3 3 3 3 3 3 4 5 5 4 4 4 4 4 4 4 4 5 9 9 9 9 6 5 8 10 11 10 8 10 12 10 5
5 4 3 3 4 3 3 4 3 2 3 3 3 3 3 3 3 4 4 4 4 4 4 5 5 5 4 4 4 4 5 7 6 5 7 9 10 7 8 8 7 4 5
5 4 4 5 5 4 4 3 2 2 3 3 3 3 3 3 3 3 4 4 5 5 6 5 5 5 5 6 8 5 4 4 5 4 3 3 3 3 4 4 4 4 4
5 4 5 5 5 4 4 3 2 3 3 3 3 2 2 2 2 2 2 5 6 7 9 9 7 6 8 9 9 9 9 9 9 5 4 4 4 5 5 5 5 5 5
Wind_Direction
239 204 190 175 165 163 163 166 160 154 149 144 145 139 142 137 127 133 137 136 142 141 132 127 117 117 122 123 120 110 88 70 72 75 38 18 29 48 45 43 52 47 44
235 201 180 176 182 182 177 173 170 163 165 161 143 129 126 127 124 121 122 137 138 141 137 137 136 122 120 116 113 115 112 79 70 104 100 16 349 1 30 31 54 37 29
226 207 198 198 191 189 187 189 180 168 162 143 118 103 93 88 99 108 114 136 146 141 137 139 138 132 124 131 129 126 132 129 60 74 128 136 230 300 328 357 26 17 18
235 206 199 205 209 203 189 184 174 164 159 150 150 147 151 157 169 144 136 125 140 144 142 144 143 138 129 133 137 123 130 135 136 82 62 111 146 158 313 321 343 349 343
228 216 206 207 209 199 182 181 165 159 156 158 164 155 147 145 128 119 125 124 112 125 137 143 138 135 135 138 133 125 125 137 151 150 128 96 81 108 164 273 309 326 300
229 226 215 189 186 174 172 172 162 159 155 157 159 158 155 147 138 137 142 139 125 111 124 135 138 141 140 144 145 138 134 139 143 145 151 156 157 171 173 224 261 286 289
218 222 214 200 191 182 179 178 169 165 160 158 161 165 163 158 161 159 159 155 148 151 163 150 149 149 152 152 145 139 144 150 157 169 178 181 188 177 175 185 231 271 292
226 227 226 214 204 194 182 179 178 173 167 166 167 162 160 160 164 161 158 162 167 171 154 155 154 154 148 147 140 133 147 151 168 181 181 191 204 189 187 181 180 272 293
240 236 230 213 204 196 189 185 182 175 173 173 164 160 161 162 164 158 154 156 160 157 147 149 149 149 148 151 144 144 162 158 177 189 186 202 217 202 208 193 179 186 252
270 256 247 218 203 196 184 174 178 180 175 171 170 168 167 167 162 155 162 165 163 153 148 153 159 156 152 154 153 156 162 160 182 183 187 217 232 223 215 206 200 194 206
272 255 240 221 198 179 169 172 174 171 170 173 169 160 165 163 157 163 171 169 162 160 162 167 166 166 166 166 164 174 169 178 197 201 204 229 227 227 224 213 208 209 203
284 264 226 190 182 182 180 180 179 179 179 172 165 166 162 158 161 169 172 167 166 168 169 168 168 174 176 174 178 190 189 193 208 219 215 234 231 232 227 219 221 222 216
309 301 269 220 203 194 188 183 183 184 172 162 161 162 164 166 174 178 174 170 168 168 168 169 178 186 188 188 194 196 201 207 215 217 219 230 226 239 235 227 228 230 236
306 292 267 251 230 207 193 186 190 182 169 164 165 172 180 181 182 178 174 174 170 172 177 182 188 192 194 198 201 200 208 217 223 222 223 226 224 231 233 235 232 231 236
312 291 267 252 237 214 200 191 189 180 171 167 175 187 183 174 170 173 176 173 175 184 184 182 190 196 200 206 205 205 210 217 230 235 235 234 238 241 241 243 232 224 235
305 295 279 262 245 225 208 197 192 183 171 176 186 182 172 172 177 181 177 176 184 187 183 191 196 205 219 230 227 218 212 220 228 240 247 248 249 256 261 265 260 247 241
299 297 288 269 252 233 210 201 196 178 174 182 184 180 176 179 186 182 178 189 196 193 198 209 207 219 234 241 241 236 221 222 229 235 243 254 255 265 252 263 267 262 261
304 299 295 292 280 246 219 196 172 172 179 184 189 185 179 185 185 184 195 203 199 201 209 218 219 225 240 244 245 244 225 225 233 235 236 242 251 252 254 247 253 254 259
289 284 276 271 272 262 210 174 175 176 182 195 199 195 187 187 190 199 207 207 200 208 215 218 217 224 243 245 244 241 216 230 240 241 238 242 246 260 269 263 259 267 268
299 296 298 294 284 270 175 172 190 194 209 212 209 198 190 191 200 207 210 208 204 211 213 225 223 224 236 245 245 238 215 230 243 246 245 255 261 269 272 261 257 268 273
307 307 306 296 278 251 176 192 207 222 225 209 200 197 195 199 202 203 205 201 203 206 218 232 235 230 236 245 245 239 220 223 240 249 250 251 269 275 277 276 262 269 281
314 312 305 300 295 253 196 219 234 236 212 196 200 206 205 203 197 194 202 198 196 209 225 235 250 242 240 243 246 246 246 245 238 249 251 257 272 278 281 281 278 284 290
303 302 288 295 299 270 225 237 248 223 201 201 210 216 212 208 199 198 200 200 198 209 223 228 247 257 240 241 250 255 258 256 251 249 261 272 279 284 283 280 284 288 280
299 302 298 291 291 283 259 245 247 217 198 211 218 211 209 215 211 207 200 202 206 215 225 230 240 251 251 241 238 241 253 258 261 263 268 277 282 282 281 283 283 271 261
295 294 286 282 283 283 274 265 240 211 215 225 229 223 217 212 214 218 216 216 218 215 219 228 228 235 254 253 250 252 248 242 248 270 268 264 270 264 268 268 267 264 268
288 287 282 280 283 281 275 270 243 212 206 223 227 221 212 213 213 226 268 254 244 250 246 243 241 244 253 268 268 267 269 270 270 274 261 262 261 265 270 276 277 270 268
Height
1483 1484 1485 1486 1488 1489 1490 1492 1493 1496 1499 1501 1503 1505 1508 1511 1513 1515 1516 1518 1520 1522 1523 1525 1526 1527 1527 1528 1529 1530 1531 1531 1532 1533 1533 1534 1534 1534 1534 1535 1535 1535 1534
1481 1482 1483 1484 1485 1486 1488 1490 1492 1494 1497 1499 1501 1504 1506 1508 1511 1513 1515 1516 1518 1519 1521 1523 1524 1525 1526 1526 1527 1528 1529 1529 1530 1531 1531 1532 1533 1532 1533 1533 1533 1533 1533
1478 1480 1481 1481 1483 1484 1485 1487 1490 1492 1495 1497 1499 1501 1503 1506 1508 1510 1513 1515 1516 1518 1519 1521 1522 1523 1524 1525 1525 1526 1527 1528 1528 1529 1530 1530 1530 1530 1531 1530 1531 1531 1531
1476 1477 1478 1479 1480 1482 1484 1486 1488 1490 1493 1495 1497 1499 1501 1504 1506 1508 1511 1513 1514 1516 1517 1519 1520 1521 1522 1523 1524 1524 1525 1526 1526 1527 1527 1528 1528 1528 1528 1528 1528 1528 1528
1473 1474 1476 1477 1479 1480 1482 1484 1486 1488 1490 1493 1495 1497 1500 1503 1505 1507 1509 1511 1513 1514 1515 1516 1517 1518 1520 1521 1522 1522 1523 1524 1524 1524 1524 1525 1525 1525 1525 1524 1525 1525 1525
1471 1472 1474 1475 1476 1478 1480 1482 1484 1486 1488 1491 1493 1495 1498 1501 1503 1504 1506 1508 1510 1512 1513 1514 1515 1516 1517 1518 1519 1520 1520 1521 1521 1522 1522 1522 1522 1522 1522 1521 1521 1521 1521
1469 1470 1471 1472 1474 1476 1478 1480 1482 1484 1487 1489 1492 1494 1496 1499 1500 1502 1504 1506 1507 1509 1510 1512 1513 1514 1515 1516 1516 1517 1517 1518 1519 1519 1519 1520 1520 1520 1519 1519 1518 1517 1516
1467 1468 1469 1471 1472 1474 1475 1477 1480 1483 1485 1488 1490 1492 1494 1496 1498 1500 1502 1504 1505 1506 1508 1509 1510 1511 1512 1513 1513 1513 1514 1515 1515 1516 1516 1517 1517 1517 1516 1516 1515 1513 1512
1465 1466 1467 1468 1470 1472 1473 1476 1478 1481 1483 1486 1488 1490 1492 1494 1496 1498 1499 1501 1502 1504 1505 1506 1507 1508 1509 1510 1510 1511 1512 1512 1512 1513 1513 1513 1513 1513 1513 1513 1512 1512 1508
1464 1464 1465 1466 1468 1470 1472 1474 1476 1479 1481 1483 1486 1488 1490 1491 1493 1495 1497 1498 1500 1501 1502 1503 1504 1505 1506 1507 1507 1508 1508 1509 1509 1509 1510 1510 1510 1510 1509 1509 1509 1508 1506
1463 1463 1464 1465 1466 1467 1469 1471 1473 1476 1478 1481 1483 1485 1487 1489 1491 1492 1494 1495 1497 1498 1499 1500 1501 1502 1503 1504 1504 1504 1504 1505 1505 1506 1506 1506 1506 1506 1506 1505 1505 1504 1502
1462 1463 1463 1464 1465 1466 1467 1469 1471 1474 1476 1478 1480 1482 1484 1486 1488 1489 1491 1492 1493 1494 1496 1497 1498 1499 1499 1500 1500 1500 1501 1501 1501 1502 1502 1502 1502 1502 1501 1501 1500 1499 1498
1461 1461 1462 1462 1463 1464 1466 1467 1469 1471 1473 1476 1478 1480 1481 1483 1485 1486 1488 1489 1490 1491 1492 1493 1494 1495 1495 1496 1496 1496 1496 1497 1497 1497 1497 1497 1497 1497 1496 1495 1495 1494 1493
1461 1460 1461 1461 1462 1463 1464 1465 1467 1469 1471 1473 1475 1476 1478 1480 1482 1483 1485 1486 1486 1487 1488 1489 1490 1491 1491 1492 1492 1492 1492 1492 1493 1493 1493 1492 1492 1492 1491 1490 1489 1489 1487
1460 1459 1459 1460 1460 1461 1462 1464 1465 1466 1468 1470 1472 1473 1475 1477 1479 1480 1481 1482 1482 1483 1484 1485 1486 1486 1487 1487 1487 1488 1488 1488 1488 1488 1488 1488 1487 1486 1486 1485 1484 1483 1482
1459 1459 1458 1458 1459 1459 1460 1461 1462 1464 1465 1467 1469 1471 1472 1474 1475 1476 1477 1478 1478 1479 1481 1481 1482 1482 1482 1483 1483 1483 1483 1483 1483 1483 1483 1482 1482 1481 1480 1480 1479 1478 1476
1458 1457 1457 1457 1457 1457 1458 1459 1460 1462 1463 1465 1466 1467 1469 1470 1471 1472 1473 1474 1474 1475 1476 1477 1477 1477 1478 1478 1478 1478 1478 1478 1478 1477 1477 1476 1476 1475 1474 1473 1473 1472 1471
1457 1456 1455 1455 1455 1456 1456 1457 1458 1459 1460 1462 1463 1464 1465 1466 1467 1468 1469 1470 1470 1471 1471 1472 1472 1473 1473 1473 1473 1473 1473 1473 1473 1472 1471 1470 1470 1469 1468 1467 1465 1465 1464
1456 1455 1454 1454 1454 1454 1454 1454 1455 1456 1457 1458 1459 1460 1461 1462 1463 1464 1465 1465 1466 1466 1467 1467 1467 1467 1468 1468 1468 1468 1468 1467 1467 1467 1466 1464 1463 1463 1462 1460 1459 1457 1456
1455 1453 1452 1452 1452 1452 1451 1452 1452 1453 1454 1455 1456 1457 1457 1458 1459 1459 1460 1461 1461 1461 1462 1462 1462 1462 1462 1463 1463 1463 1462 1461 1461 1460 1460 1459 1458 1457 1456 1454 1452 1450 1449
1453 1451 1450 1449 1449 1449 1449 1449 1449 1450 1450 1451 1452 1453 1453 1454 1454 1455 1455 1456 1456 1456 1457 1457 1457 1457 1457 1457 1457 1457 1456 1455 1454 1454 1453 1452 1452 1451 1450 1448 1446 1444 1443
1450 1449 1448 1447 1446 1446 1446 1445 1445 1446 1447 1447 1447 1448 1449 1449 1450 1450 1450 1451 1451 1451 1451 1451 1451 1452 1452 1452 1451 1451 1451 1450 1449 1447 1447 1446 1445 1444 1443 1442 1440 1438 1436
1447 1446 1445 1444 1443 1443 1442 1442 1442 1442 1442 1442 1443 1443 1444 1444 1445 1445 1445 1445 1445 1446 1446 1446 1446 1446 1446 1446 1446 1445 1445 1444 1443 1442 1441 1440 1439 1438 1436 1435 1433 1432 1430
1444 1443 1441 1440 1439 1439 1439 1439 1438 1438 1438 1438 1438 1439 1439 1439 1440 1440 1440 1440 1440 1440 1440 1440 1440 1440 1440 1440 1440 1439 1438 1438 1437 1436 1434 1434 1433 1431 1430 1428 1427 1425 1423
1441 1440 1438 1437 1436 1436 1435 1435 1435 1434 1434 1434 1434 1434 1434 1435 1435 1435 1435 1435 1435 1436 1435 1435 1435 1434 1434 1434 1434 1433 1432 1432 1431 1429 1428 1427 1426 1424 1423 1421 1420 1419 1417
1437 1436 1435 1434 1433 1432 1431 1431 1430 1430 1430 1430 1430 1430 1430 1430 1430 1430 1430 1430 1431 1431 1430 1430 1430 1429 1429 1428 1428 1427 1427 1426 1425 1424 1422 1420 1419 1418 1416 1415 1413 1412 1410